Location: Mladá Boleslav
(50.4134°N, 14.9084°E)
Time: 16:48:16
(UTC+02:00)

KKS-1 - Pass Details

Date: 27 May 2024
Orbit: 626 x 640 km, 98.1° (Epoch: 20 June)

Event Time Altitude Azimuth Distance (km) Brightness Sun altitude
Rises 01:44:53 0° 3° (N) 2,944 ? -17.5°
Reaches altitude 10° 01:47:31 10° 348° (NNW) 2,028 ? -17.4°
Maximum altitude 01:50:47 21° 300° (WNW) 1,432 ? -17.3°
Enters shadow 01:53:45 11° 254° (WSW) 1,921 ? -17.2°
